Zurück zum Katalog

THOR AGENA B R/B

AktivPO
NORAD 426·ROCKET BODY·🇺🇸 United States

Gestartet Sep 29, 1962 von Vandenberg Space Force Base

Loading…

Nächste Überflüge (nächste 24 Stunden)

TLE

AktuellSource: Space-Track

Epoche: Sep 9, 2026, 22:36 UTC

1 00426U 62049B   26252.94196646  .00000034  00000-0  29387-4 0  9995
2 00426  80.4729 184.3713 0018309  13.1943  58.5383 13.68767609191728

Verfolge THOR AGENA B R/B in Echtzeit mit AllMySat

Download on the App Store